Location: Mascot Post Office (historical)
(40.2645°N, 99.5462°W)
Time: 02:18:34
(UTC+00:00)

Meteor 1-19 Rocket - Pass Details

Date: 14 July 2020
Orbit: 810 x 924 km, 81.2° (Epoch: 14 August)

Event Time Altitude Azimuth Distance (km) Brightness Sun altitude
Rises 08:07:51 0° 348° (NNW) 3,432 8.2 -25.2°
Reaches altitude 10° 08:10:18 10° 347° (NNW) 2,475 7.3 -25.0°
Maximum altitude 08:15:53 74° 263° (W) 864 4.1 -24.6°
Enters shadow 08:16:34 65° 211° (SSW) 907 4.0 -24.5°
